TimeEST,TemperatureF,Dew PointF,Humidity,Sea Level PressureIn,VisibilityMPH,Wind Direction,Wind SpeedMPH,Gust SpeedMPH,PrecipitationIn,Events,Conditions,WindDirDegrees,DateUTC
12:56 AM,23.0,16.2,75,30.35,6.0,WSW,16.1,-,N/A,,Haze,250,2013-01-05 05:56:00
1:56 AM,23.0,17.1,78,30.35,7.0,WSW,11.5,-,N/A,,Clear,250,2013-01-05 06:56:00
2:56 AM,22.1,16.2,78,30.36,6.0,WSW,8.1,-,N/A,,Haze,250,2013-01-05 07:56:00
3:56 AM,21.0,16.2,81,30.38,6.0,WSW,10.4,-,N/A,,Haze,240,2013-01-05 08:56:00
4:56 AM,20.1,15.1,81,30.38,6.0,SW,9.2,-,N/A,,Haze,220,2013-01-05 09:56:00
5:56 AM,19.0,15.1,85,30.38,6.0,SW,5.8,-,N/A,,Clear,220,2013-01-05 10:56:00
6:56 AM,19.0,16.2,89,30.39,5.0,SSW,9.2,-,N/A,,Clear,210,2013-01-05 11:56:00
7:56 AM,20.1,16.2,85,30.39,4.0,SSW,11.5,-,N/A,,Clear,210,2013-01-05 12:56:00
8:56 AM,22.1,17.1,81,30.37,5.0,SSW,6.9,-,N/A,,Haze,200,2013-01-05 13:56:00
9:56 AM,25.2,19.0,78,30.38,5.0,SW,10.4,-,N/A,,Haze,220,2013-01-05 14:56:00
10:56 AM,28.0,21.0,75,30.39,5.0,SSW,11.5,-,N/A,,Haze,210,2013-01-05 15:56:00
11:56 AM,29.1,21.0,72,30.35,5.0,SSW,6.9,-,N/A,,Haze,200,2013-01-05 16:56:00
12:56 PM,32.9,22.1,65,30.31,6.0,SSW,9.2,-,N/A,,Haze,210,2013-01-05 17:56:00
1:56 PM,34.9,22.1,60,30.27,6.0,SSW,8.1,-,N/A,,Haze,200,2013-01-05 18:56:00
2:56 PM,34.9,22.1,60,30.24,6.0,South,8.1,-,N/A,,Haze,180,2013-01-05 19:56:00
3:56 PM,34.9,23.0,62,30.24,6.0,South,5.8,-,N/A,,Haze,190,2013-01-05 20:56:00
4:56 PM,34.9,23.0,62,30.23,6.0,SSW,8.1,-,N/A,,Haze,210,2013-01-05 21:56:00
5:56 PM,34.0,24.1,67,30.25,7.0,SSW,8.1,-,N/A,,Scattered Clouds,200,2013-01-05 22:56:00
6:56 PM,34.0,24.1,67,30.23,7.0,SW,5.8,-,N/A,,Clear,220,2013-01-05 23:56:00
7:56 PM,34.0,23.0,64,30.23,8.0,SW,10.4,-,N/A,,Mostly Cloudy,230,2013-01-06 00:56:00
8:56 PM,34.0,23.0,64,30.22,8.0,SW,10.4,-,N/A,,Overcast,230,2013-01-06 01:56:00
9:56 PM,32.9,24.1,70,30.21,7.0,SSW,6.9,-,N/A,,Overcast,210,2013-01-06 02:56:00
10:56 PM,32.9,23.0,67,30.20,7.0,SW,10.4,-,N/A,,Overcast,230,2013-01-06 03:56:00
11:56 PM,32.0,22.1,67,30.19,7.0,SW,9.2,-,N/A,,Scattered Clouds,230,2013-01-06 04:56:00